Regional Weather Roundup
Issued by NWS

Home | Current Version | Previous Version | Text Only | Print | Product List | Glossary Off
Versions: 1 2 3 4 5 6 7 8 9 10 11 12 13 14 15 16 17 18 19 20 21 22 23 24 25 26 27 28 29 30 31 32 33 34 35 36 37 38 39 40 41 42 43 44 45 46 47 48 49 50

000
ASUS43 KDMX 312107
RWRIA

WEATHER ROUNDUP FOR IOWA
NATIONAL WEATHER SERVICE DES MOINES IA
300 PM CST SAT JAN 31 2015

NOTE: "FAIR" INDICATES FEW OR NO CLOUDS BELOW 12,000 FEET WITH NO
SIGNIFICANT WEATHER AND/OR OBSTRUCTIONS TO VISIBILITY.

* - THESE STATIONS ARE NOT NWS STATIONS...THUS NOT UNDER NWS
QUALITY CONTROL.  THEY ALSO DO NOT REPORT WEATHER SUCH
AS PRECIPITATION OR FOG.

IAZ001>003-012>014-020>022-031>034-043>046-312200-
   NORTHWEST IOWA

CITY           SKY/WX    TMP DP  RH WIND       PRES   REMARKS
CARROLL *      LGT SNOW  34  34 100 S5        30.05F WCI  30
CHEROKEE *     LGT SNOW  30  30 100 NE8       30.06S VSB 3/4 WCI  23
DENISON *      LGT SNOW  34  34 100 S3        30.02F
LE MARS *      LGT SNOW  32  30  93 NE9       30.05S VSB 1   WCI  24
ORANGE CITY *  LGT SNOW  30  28  93 E10G16    30.04F WCI  21
SHELDON *      FOG       28  28 100 NE18      30.05S VSB 1   WCI  16
SIOUX CITY     LGT RAIN  36  34  92 SE5       30.03F FOG     WCI  32
SPENCER        CLOUDY    28  25  88 NE13      30.08F FOG     WCI  17
STORM LAKE *   SNOW      30  30 100 NE8       30.05F VSB 1/2 WCI  23
$$

IAZ055>058-069>071-079>083-090>094-312200-
   SOUTHWEST IOWA

CITY           SKY/WX    TMP DP  RH WIND       PRES   REMARKS
ATLANTIC *     FLURRIES  36  36 100 S10       30.04F WCI  28
AUDUBON *      LGT SNOW  34  30  86 CALM      30.05F VSB 3/4
CLARINDA *     LGT SNOW  34  34 100 SE9G45    30.07F WCI  26
COUNCIL BLFS * CLOUDY    34  34 100 S13       30.01F FOG     WCI  25
CRESTON *      LGT SNOW  34  34 100 S9G16     30.08F WCI  26
HARLAN  *      LGT SNOW  32  32 100 SE5       30.07F WCI  27
LAMONI         LGT RAIN  37  35  92 S12       30.10F WCI  29
RED OAK *      LGT SNOW  34  34 100 SE9       30.05F WCI  26
SHENANDOAH *   LGT SNOW  34  34 100 SE15      30.04F WCI  24
$$

IAZ047>049-059>061-072>074-084-312200-
   CENTRAL IOWA

CITY           SKY/WX    TMP DP  RH WIND       PRES   REMARKS
AMES           MIX PCPN  35  34  96 SW7       30.09F FOG     WCI  29
ANKENY *       CLOUDY    37  36  93 CALM      30.10F
CHARITON *     LGT RAIN  36  36 100 S9G15     30.12F WCI  29
DES MOINES     LGT RAIN  39  36  89 S7        30.10F WCI  34
GRINNELL*      LGT RAIN  37  36  93 SW12      30.11F WCI  30
KNOXVILLE *    CLOUDY    39  37  93 SW8       30.10F FOG     WCI  34
MARSHALLTOWN   CLOUDY    37  36  96 SW7       30.09F FOG     WCI  32
PELLA *        RAIN      39  37  93 S6        30.13F WCI  35
PERRY *        LGT SNOW  34  34 100 S3        30.08F
$$

IAZ004>006-015-016-023>025-035-036-312200-
   NORTH CENTRAL IOWA

CITY           SKY/WX    TMP DP  RH WIND       PRES   REMARKS
ALGONA *       MIX PCPN  30  30 100 NE10      30.09S WCI  21
CLARION *      MIX PCPN  34  34 100 CALM      30.08F VSB 3/4
ESTHERVILLE    FOG       27  26  96 NE13      30.09F VSB 1/4 WCI  16
FORT DODGE *   CLOUDY    32  30  93 E3        30.08F VSB 3/4
MASON CITY     CLOUDY    31  27  85 E9        30.11F WCI  23
FOREST CITY *  CLOUDY    32  28  86 NE5       30.10S WCI  27
IOWA FALLS *   LGT RAIN  36  36 100 CALM      30.09F
$$

IAZ007>011-017>019-026>030-037>042-050>054-066-312200-
   NORTHEAST IOWA

CITY           SKY/WX    TMP DP  RH WIND       PRES   REMARKS
CEDAR RAPIDS   CLOUDY    36  36 100 SW7       30.12F FOG     WCI  30
CHARLES CITY * CLOUDY    32  28  86 NE8       30.11F WCI  25
CLINTON *      CLOUDY    36  32  87 W9        30.17F WCI  29
DECORAH *      CLOUDY    32  25  74 NE6       30.11F WCI  26
DUBUQUE        CLOUDY    35  29  78 SW6       30.13S WCI  30
MONTICELLO *   CLOUDY    36  36 100 SW5       30.13F FOG     WCI  32
OELWEIN *      CLOUDY    36  30  80 SW5       30.11F WCI  32
WATERLOO       CLOUDY    35  35 100 S6        30.11F FOG     WCI  30
$$

IAZ064-065-067-068-078-312200-
   EAST CENTRAL IOWA

CITY           SKY/WX    TMP DP  RH WIND       PRES   REMARKS
DAVENPORT      CLOUDY    35  32  88 SW5       30.16F FOG     WCI  31
IOWA CITY      LGT RAIN  37  36  96 S5        30.16F FOG     WCI  33
MT. PLEASANT * LGT RAIN  34  34 100 S6        30.17F WCI  29
MUSCATINE *    MIX PCPN  36  34  93 S5        30.17F WCI  32
QUAD CITIES    CLOUDY    36  33  89 SW5       30.16F WCI  32
$$

IAZ062-063-075>077-085>089-095>099-312200-
   SOUTHEAST IOWA

CITY           SKY/WX    TMP DP  RH WIND       PRES   REMARKS
BURLINGTON     LGT RAIN  35  34  96 SW7       30.17S FOG     WCI  29
FAIRFIELD *    MIX PCPN  37  36  93 S7        30.15F WCI  32
FORT MADISON * LGT RAIN  36  34  93 S8        30.19S WCI  29
KEOKUK *       LGT RAIN  36  34  93 S9        30.18S WCI  29
OSKALOOSA *    LGT RAIN  37  36  93 SW7       30.14S WCI  32
CENTERVILLE *  LGT RAIN  37  37 100 S9        30.14F WCI  31
OTTUMWA        LGT RAIN  38  38 100 SW12      30.14F WCI  30
WASHINGTON *   MIX PCPN  37  37 100 S8        30.15F WCI  31
$$

ABBREVIATIONS USED IN REMARKS
   TC - TEMPERATURES IN CELSIUS
  WCI - WIND CHILL INDEX
   HX - HEAT INDEX
  VSB - VISIBILITY
$$




USA.gov is the U.S. government's official web portal to all federal, state and local government web resources and services.